User: anonymous   Login
Location: Chevoux
(46.3801°N, 4.9476°E)
Time: 02:59:12
(UTC+00:00)
Language:

Transit 2A - Orbit

View from above orbital plane
View from above orbital plane
View from above satellite
View from above satellite

Ground track
Ground track

The orbit data is extracted from the following two-line orbital elements,

1 00045U 60007A   21131.03770264 -.00000087  00000-0  48161-5 0  9990
2 00045  66.6949 237.6116 0247923  76.7484 286.1140 14.33718872112796
Epoch (UTC): 11 May 2021 00:54:17
Eccentricity: 0.0247923
inclination: 66.6949°
perigee height: 602 km
apogee height: 957 km
right ascension of ascending node: 237.6116°
argument of perigee: 76.7484°
revolutions per day: 14.33718872
mean anomaly at epoch: 286.1140°
orbit number at epoch: 11279

The dashed part of the orbit path shows where the satellite is in the earth's shadow,  

DLR